This demonstration page uses our WeatherBlox Daily Observations layout. Learn more.

Left ArrowRight Arrow

Hourly Observations for July 2, 2017

Temp ( °F °C ) Dew Point ( °F °C ) Humidity (%) Winds ( mph kmh ) Pressure ( in mb ) Visibility ( mi km ) Precip ( " mm )
12:53 am 00:53 Clear 66 18.9 66 18.9 100 100 N N/A 30.04 1017 7 11 N/A
1:53 am 01:53 Clear with Mist and Fog 65 18.3 65 18.3 100 100 N N/A 30.04 1017 4 6 N/A
2:03 am 02:03 Clear with Mist and Fog 65 18.3 65 18.3 100 100 N N/A 30.06 1018 2 3 N/A
2:13 am 02:13 Clear 65 18.3 65 18.3 100 100 N N/A 30.06 1018 7 11 N/A
2:53 am 02:53 Clear with Mist and Fog 65 18.3 65 18.3 100 100 N N/A 30.04 1017 5 8 N/A
2:58 am 02:58 Clear with Mist and Fog 64 17.8 64 17.8 100 100 N N/A 30.06 1018 2 3 N/A
3:05 am 03:05 Clear with Mist and Fog 64 17.8 64 17.8 100 100 N N/A 30.06 1018 1 2 N/A
3:08 am 03:08 Clear with Mist and Fog 64 17.8 64 17.8 100 100 N N/A 30.06 1018 3 4 N/A
3:15 am 03:15 Clear 64 17.8 64 17.8 100 100 N N/A 30.06 1018 8 13 N/A
3:53 am 03:53 Clear with Mist and Fog 64 17.8 64 17.8 100 100 N N/A 30.04 1017 6 10 N/A
4:53 am 04:53 Mostly Clear 64 17.8 64 17.8 100 100 N N/A 30.05 1018 7 11 N/A
5:42 am 05:42 Clear with Mist and Fog 63 17.2 63 17.2 100 100 N N/A 30.06 1018 2 3 N/A
5:53 am 05:53 Clear with Mist and Fog 63 17.2 63 17.2 100 100 N N/A 30.06 1018 3 4 N/A
6:00 am 06:00 Clear with Mist and Fog 63 17.2 63 17.2 100 100 N N/A 30.06 1018 4 6 N/A
6:10 am 06:10 Clear with Mist and Fog 63 17.2 62 16.7 97 97 N N/A 30.06 1018 2 3 N/A
6:15 am 06:15 Clear with Mist and Fog 62 16.7 62 16.7 100 100 N N/A 30.06 1018 1 1 N/A
6:42 am 06:42 Mostly Cloudy with Fog 63 17.2 63 17.2 100 100 N N/A 30.06 1018 0 0 N/A
6:53 am 06:53 Mostly Cloudy with Mist and Fog 63 17.2 63 17.2 100 100 N N/A 30.07 1018 1 1 N/A
6:56 am 06:56 Partly Cloudy with Mist and Fog 64 17.8 64 17.8 100 100 N N/A 30.06 1018 1 2 N/A
7:06 am 07:06 Sunny with Mist and Fog 65 18.3 65 18.3 100 100 N N/A 30.06 1018 3 5 N/A
7:53 am 07:53 Sunny 69 20.6 67 19.4 93 93 N N/A 30.09 1019 7 11 N/A
8:53 am 08:53 Sunny 73 22.8 67 19.4 81 81 W 6 9 30.10 1019 10 16 N/A
9:53 am 09:53 Sunny 77 25 67 19.4 71 71 WSW 5 7 30.11 1020 10 16 N/A
10:53 am 10:53 Sunny 80 26.7 66 18.9 62 62 VRB 7 11 30.11 1020 10 16 N/A
11:53 am 11:53 Mostly Sunny 82 27.8 64 17.8 55 55 WSW 12 19 30.11 1020 10 16 N/A
12:53 pm 12:53 Partly Cloudy 84 28.9 63 17.2 49 49 W 15 24 30.11 1020 10 16 N/A
1:53 pm 13:53 Partly Cloudy 84 28.9 61 16.1 46 46 W 9 15 30.10 1019 10 16 N/A
2:53 pm 14:53 Mostly Sunny 85 29.4 62 16.7 46 46 W 9 15 30.08 1019 10 16 N/A
3:53 pm 15:53 Partly Cloudy 84 28.9 62 16.7 48 48 WSW 9 15 30.07 1018 10 16 N/A
4:53 pm 16:53 Mostly Sunny 85 29.4 62 16.7 46 46 VRB 7 11 30.06 1018 10 16 N/A
5:53 pm 17:53 Partly Cloudy 85 29.4 63 17.2 48 48 WNW 9 15 30.06 1018 10 16 N/A
6:53 pm 18:53 Sunny 84 28.9 62 16.7 48 48 VRB 7 11 30.05 1018 10 16 N/A
7:53 pm 19:53 Sunny 83 28.3 61 16.1 48 48 WNW 9 15 30.06 1018 10 16 N/A
8:53 pm 20:53 Sunny 74 23.3 66 18.9 76 76 N N/A 30.05 1018 10 16 N/A
9:53 pm 21:53 Clear 69 20.6 65 18.3 87 87 N N/A 30.06 1018 10 16 N/A
10:53 pm 22:53 Clear 67 19.4 65 18.3 93 93 N N/A 30.08 1019 10 16 N/A
11:53 pm 23:53 Clear 65 18.3 64 17.8 97 97 N N/A 30.08 1019 9 14 N/A

Powered by AerisWeather